GW1915 Weather Reports


time (UTC)temp
C
wind
direction
speed
KPH
gust
KPH
rain 1hr
cm
rain 24hr
cm
rain mn
cm
humidity
%
barometer
mb
20260506143208 17 188 3.2 9.7 0.00 0.00 0.00 80 1003.9
20260506142707 17 182 4.8 9.7 0.00 0.00 0.00 80 1004.2
20260506142204 17 272 4.8 9.7 0.00 0.00 0.00 80 1003.9
20260506141702 17 164 1.6 9.7 0.00 0.00 0.00 80 1003.9
20260506141200 17 151 0.0 6.4 0.00 0.00 0.00 80 1004.2
20260506140657 18 166 0.0 11.3 0.00 0.00 0.00 79 1004.2
20260506140154 17 225 4.8 6.4 0.00 0.00 0.00 79 1004.2
20260506135651 17 157 3.2 9.7 0.00 0.00 0.00 80 1003.9
20260506135147 17 192 6.4 9.7 0.00 0.00 0.00 80 1003.9
20260506134644 17 118 6.4 12.9 0.00 0.00 0.00 79 1004.2
20260506134140 17 138 1.6 12.9 0.00 0.00 0.00 81 1004.2
20260506133637 17 166 0.0 4.8 0.00 0.00 0.00 82 1003.9
20260506133134 17 106 4.8 11.3 0.00 0.00 0.00 82 1003.9
20260506132632 17 149 3.2 4.8 0.00 0.00 0.00 83 1004.2
20260506132128 16 167 1.6 3.2 0.00 0.00 0.00 85 1003.9
20260506131626 16 191 1.6 4.8 0.00 0.00 0.00 86 1003.9
20260506131121 16 170 4.8 6.4 0.00 0.00 0.00 86 1003.9
20260506130619 16 167 3.2 4.8 0.00 0.00 0.00 86 1003.9
20260506130116 16 167 1.6 3.2 0.00 0.00 0.00 86 1003.9
20260506125614 16 143 3.2 9.7 0.00 0.00 0.00 87 1003.9
20260506125112 16 113 1.6 3.2 0.00 0.00 0.00 87 1003.9
20260506124609 16 175 3.2 6.4 0.00 0.00 0.00 87 1003.9
20260506124107 16 165 0.0 4.8 0.00 0.00 0.00 87 1004.2
20260506123604 15 107 4.8 9.7 0.00 0.00 0.00 87 1004.5
20260506123103 15 146 0.0 4.8 0.00 0.00 0.00 87 1004.2
20260506122559 15 163 4.8 9.7 0.00 0.00 0.00 87 1004.2
20260506122057 15 167 3.2 11.3 0.00 0.00 0.00 87 1004.2
20260506121554 15 163 1.6 4.8 0.00 0.00 0.00 88 1004.5
20260506121050 15 214 1.6 9.7 0.00 0.00 0.00 89 1004.5
20260506120549 15 164 0.0 4.8 0.00 0.00 0.00 89 1004.5
20260506120045 15 165 3.2 9.7 0.00 0.00 0.00 90 1004.5
20260506115544 15 117 3.2 6.4 0.00 0.00 0.00 91 1004.5
20260506115042 14 127 1.6 9.7 0.00 0.00 0.00 91 1004.2
20260506114539 14 172 0.0 11.3 0.00 0.00 0.00 92 1004.5
20260506114037 14 222 1.6 4.8 0.00 0.00 0.00 92 1004.2
20260506113535 13 167 1.6 9.7 0.00 0.00 0.00 93 1004.2
20260506113032 13 165 0.0 9.7 0.00 0.00 0.00 94 1004.2
20260506112528 13 161 1.6 6.4 0.00 0.00 0.00 94 1004.2
20260506112026 13 156 3.2 3.2 0.00 0.00 0.00 95 1004.2
20260506111524 13 243 3.2 4.8 0.00 0.00 0.00 95 1004.5
20260506111021 13 170 4.8 6.4 0.00 0.00 0.00 96 1004.5
20260506110518 12 162 1.6 4.8 0.00 0.00 0.00 97 1004.2
20260506110015 12 169 1.6 3.2 0.00 0.00 0.00 97 1004.5
20260506105511 12 174 0.0 4.8 0.00 0.00 0.00 98 1004.5
20260506105009 12 190 0.0 3.2 0.00 0.00 0.00 98 1004.5
20260506104507 12 164 1.6 6.4 0.00 0.00 0.00 98 1004.5
20260506104005 12 156 3.2 4.8 0.00 0.00 0.00 98 1004.5
20260506103501 12 99 4.8 9.7 0.00 0.00 0.00 98 1004.2
20260506102958 12 161 1.6 3.2 0.00 0.00 0.00 99 1004.2
20260506102456 12 163 3.2 3.2 0.00 0.00 0.00 99 1004.2
20260506101953 12 120 3.2 4.8 0.00 0.00 0.00 99 1004.2
20260506101449 12 137 1.6 4.8 0.00 0.00 0.00 99 1004.2
20260506100947 12 159 0.0 3.2 0.00 0.00 0.00 98 1004.2
20260506100446 12 174 1.6 4.8 0.00 0.00 0.00 98 1004.5
20260506095943 12 186 3.2 4.8 0.00 0.00 0.00 98 1004.2
20260506095442 12 162 1.6 4.8 0.00 0.00 0.00 98 1004.2
20260506094937 12 158 1.6 3.2 0.00 0.00 0.00 98 1004.2
20260506094436 12 158 1.6 4.8 0.00 0.00 0.00 97 1003.9
20260506093933 12 164 0.0 1.6 0.00 0.00 0.00 97 1004.2
20260506093431 12 147 1.6 3.2 0.00 0.00 0.00 97 1003.9
20260506092928 12 165 1.6 3.2 0.00 0.00 0.00 97 1004.2
20260506092426 12 154 1.6 6.4 0.00 0.00 0.00 97 1004.2
20260506091922 12 169 1.6 3.2 0.00 0.00 0.00 96 1004.2
20260506091421 12 145 3.2 4.8 0.00 0.00 0.00 96 1003.9
20260506090917 12 122 3.2 6.4 0.00 0.00 0.00 96 1003.9
20260506090415 12 156 1.6 4.8 0.00 0.00 0.00 96 1004.2
20260506085912 12 158 1.6 3.2 0.00 0.00 0.00 95 1004.2
20260506085409 12 200 3.2 4.8 0.00 0.00 0.00 95 1004.2
20260506084905 12 158 1.6 4.8 0.00 0.00 0.00 95 1004.5
20260506084402 12 148 3.2 3.2 0.00 0.00 0.00 95 1004.5
20260506083858 12 204 4.8 6.4 0.00 0.00 0.00 95 1004.5
20260506083356 12 144 3.2 6.4 0.00 0.00 0.00 94 1004.2
20260506082853 12 137 3.2 9.7 0.00 0.00 0.00 94 1004.5
20260506082349 12 144 3.2 9.7 0.00 0.00 0.00 94 1004.5
20260506081845 12 211 0.0 6.4 0.00 0.00 0.00 93 1004.5
20260506081344 12 177 1.6 9.7 0.00 0.00 0.00 93 1004.5
20260506080841 12 176 4.8 9.7 0.00 0.00 0.00 93 1004.5
20260506080337 12 190 4.8 9.7 0.00 0.00 0.00 93 1004.5
20260506073322 13 187 3.2 3.2 0.00 0.00 0.00 92 1004.5
20260506072818 13 146 0.0 4.8 0.00 0.00 0.00 92 1004.5
20260506072316 13 240 3.2 4.8 0.00 0.00 0.00 92 1004.5
20260506071814 13 170 1.6 4.8 0.00 0.00 0.00 92 1004.5
20260506071312 13 307 3.2 3.2 0.00 0.00 0.00 92 1004.5
20260506070808 13 181 3.2 4.8 0.00 0.00 0.00 91 1004.5
20260506070305 13 134 3.2 9.7 0.00 0.00 0.00 91 1004.5
20260506062242 13 225 3.2 3.2 0.00 0.00 0.00 89 1004.5
20260506061738 14 161 1.6 4.8 0.00 0.00 0.00 88 1004.5
20260506061236 14 125 4.8 6.4 0.00 0.00 0.00 88 1004.5
20260506060734 14 164 1.6 3.2 0.00 0.00 0.00 87 1004.5
20260506060231 14 195 4.8 11.3 0.00 0.00 0.00 87 1004.5
20260506051203 15 225 3.2 4.8 0.00 0.00 0.00 84 1004.9
20260506050701 15 165 0.0 3.2 0.00 0.00 0.00 83 1004.9
20260506050158 15 256 4.8 4.8 0.00 0.00 0.00 82 1004.9
20260506044649 15 178 3.2 14.5 0.00 0.00 0.00 81 1004.9
20260506044145 15 161 4.8 4.8 0.00 0.00 0.00 81 1004.9
20260506043643 15 198 1.6 4.8 0.00 0.00 0.00 81 1004.9
20260506043141 15 200 3.2 3.2 0.00 0.00 0.00 81 1004.9
20260506042640 15 204 3.2 9.7 0.00 0.00 0.00 81 1004.9
20260506042137 15 141 3.2 3.2 0.00 0.00 0.00 80 1004.9
20260506041636 15 221 4.8 11.3 0.00 0.00 0.00 80 1004.9
20260506041132 15 219 1.6 9.7 0.00 0.00 0.00 79 1004.9
20260506040630 15 179 4.8 6.4 0.00 0.00 0.00 79 1004.9
20260506040126 15 167 3.2 4.8 0.00 0.00 0.00 79 1004.9
20260506035623 15 150 6.4 6.4 0.00 0.00 0.00 79 1005.2
20260506035120 15 148 6.4 6.4 0.00 0.00 0.00 79 1004.9
20260506034617 15 159 3.2 4.8 0.00 0.00 0.00 79 1004.9
20260506034114 15 197 4.8 9.7 0.00 0.00 0.00 78 1005.2
20260506033611 15 185 3.2 4.8 0.00 0.00 0.00 78 1005.2
20260506033108 15 159 3.2 4.8 0.00 0.00 0.00 78 1004.9
20260506032606 15 191 3.2 11.3 0.00 0.00 0.00 78 1004.9
20260506032102 16 155 3.2 6.4 0.00 0.00 0.00 77 1004.9
20260506031600 16 152 3.2 11.3 0.00 0.00 0.00 77 1004.9
20260506031056 16 115 6.4 6.4 0.00 0.00 0.00 77 1004.9
20260506030555 16 117 4.8 6.4 0.00 0.00 0.00 76 1004.9
20260506030052 16 162 4.8 6.4 0.00 0.00 0.00 76 1004.9
20260506025549 16 156 4.8 6.4 0.00 0.00 0.00 76 1004.9
20260506025044 16 214 3.2 9.7 0.00 0.00 0.00 76 1004.9
20260506024542 16 163 3.2 4.8 0.00 0.00 0.00 76 1004.9
20260506024038 16 244 3.2 4.8 0.00 0.00 0.00 76 1004.9
20260506023534 16 179 1.6 11.3 0.00 0.00 0.00 75 1004.9
20260506023032 16 172 1.6 6.4 0.00 0.00 0.00 75 1004.9
20260506022529 16 176 1.6 3.2 0.00 0.00 0.00 75 1004.9
20260506022027 16 166 3.2 9.7 0.00 0.00 0.00 75 1004.9
20260506021524 16 103 3.2 4.8 0.00 0.00 0.00 75 1005.2
20260506021021 16 171 1.6 3.2 0.00 0.00 0.00 74 1004.9
20260506020519 17 248 3.2 4.8 0.00 0.00 0.00 72 1004.9
20260506020016 17 153 3.2 9.7 0.00 0.00 0.00 72 1004.9
20260506015513 17 175 1.6 9.7 0.00 0.00 0.00 72 1004.9
20260506015010 17 177 3.2 4.8 0.00 0.00 0.00 71 1004.5
20260506014508 17 137 1.6 9.7 0.00 0.00 0.00 71 1004.5
20260506014003 17 173 1.6 14.5 0.00 0.00 0.00 70 1004.5
20260506013501 17 180 3.2 9.7 0.00 0.00 0.00 71 1004.5
20260506012957 17 166 3.2 6.4 0.00 0.00 0.00 69 1004.5
20260506012454 17 133 3.2 4.8 0.00 0.00 0.00 70 1004.5
20260506011951 17 150 1.6 3.2 0.00 0.00 0.00 70 1004.5
20260506011448 17 140 3.2 4.8 0.00 0.00 0.00 69 1004.2
20260506010945 17 205 1.6 6.4 0.00 0.00 0.00 69 1003.9
20260506010444 17 258 8.0 11.3 0.00 0.00 0.00 68 1004.2
20260506005939 17 161 6.4 9.7 0.00 0.00 0.00 69 1004.2
20260506005437 17 158 1.6 3.2 0.00 0.00 0.00 68 1004.2
20260506004932 17 146 6.4 9.7 0.00 0.00 0.00 68 1003.9
20260506004431 17 162 3.2 4.8 0.00 0.00 0.00 67 1003.9
20260506003926 17 151 1.6 4.8 0.00 0.00 0.00 68 1003.9
20260506003423 18 187 1.6 3.2 0.00 0.00 0.00 68 1003.9
20260506002920 18 156 0.0 4.8 0.00 0.00 0.00 67 1003.9
20260506002416 18 158 4.8 9.7 0.00 0.00 0.00 67 1003.5
20260506001911 18 167 0.0 3.2 0.00 0.00 0.00 67 1003.9
20260506001409 18 203 3.2 6.4 0.00 0.00 0.00 66 1003.5
20260506000906 18 197 1.6 4.8 0.00 0.00 0.00 66 1003.5
20260506000403 18 186 1.6 3.2 0.00 0.00 0.00 66 1003.5
20260505235900 18 191 4.8 6.4 0.00 0.00 0.00 66 1003.5
20260505235358 18 160 1.6 3.2 0.00 0.00 0.00 66 1003.2
20260505234854 18 212 1.6 9.7 0.00 0.00 0.00 66 1003.5
20260505234352 18 232 1.6 1.6 0.00 0.00 0.00 66 1003.2
20260505233849 18 174 1.6 4.8 0.00 0.00 0.00 66 1003.2
20260505233347 18 157 3.2 6.4 0.00 0.00 0.00 65 1003.2
20260505232844 18 160 3.2 9.7 0.00 0.00 0.00 65 1003.2
20260505232342 19 185 0.0 4.8 0.00 0.00 0.00 64 1003.2
20260505231838 19 158 1.6 3.2 0.00 0.00 0.00 64 1003.2
20260505231336 19 180 1.6 3.2 0.00 0.00 0.00 64 1003.2
20260505230834 20 262 3.2 6.4 0.00 0.00 0.00 63 1002.9
20260505230330 20 207 8.0 11.3 0.00 0.00 0.00 62 1002.9
20260505225827 20 160 3.2 11.3 0.00 0.00 0.00 63 1002.9
20260505225324 20 206 1.6 11.3 0.00 0.00 0.00 62 1002.5
20260505224819 20 169 4.8 11.3 0.00 0.00 0.00 61 1002.9
20260505224318 20 164 6.4 11.3 0.00 0.00 0.00 61 1002.5
20260505223814 20 124 6.4 6.4 0.00 0.00 0.00 61 1002.9
20260505223312 20 264 6.4 9.7 0.00 0.00 0.00 60 1002.5
20260505222807 20 178 3.2 12.9 0.00 0.00 0.00 60 1002.9
20260505222305 21 190 3.2 11.3 0.00 0.00 0.00 60 1002.9
20260505221801 21 165 3.2 11.3 0.00 0.00 0.00 60 1002.9
20260505221257 21 167 6.4 9.7 0.00 0.00 0.00 59 1002.9
20260505220754 21 170 4.8 11.3 0.00 0.00 0.00 59 1002.9
20260505220251 21 173 4.8 9.7 0.00 0.00 0.00 59 1002.9
20260505215750 21 246 3.2 9.7 0.00 0.00 0.00 58 1002.5
20260505215247 21 236 6.4 12.9 0.00 0.00 0.00 58 1002.9
20260505214745 21 230 1.6 4.8 0.00 0.00 0.00 58 1002.5
20260505214242 22 137 9.7 12.9 0.00 0.00 0.00 57 1002.9
20260505213739 22 193 4.8 11.3 0.00 0.00 0.00 57 1002.5
20260505213236 22 150 3.2 9.7 0.00 0.00 0.00 58 1002.5
20260505212732 22 166 4.8 9.7 0.00 0.00 0.00 57 1002.5
20260505212230 22 174 1.6 4.8 0.00 0.00 0.00 57 1002.5
20260505211726 22 201 4.8 11.3 0.00 0.00 0.00 57 1002.5
20260505211224 22 158 3.2 11.3 0.00 0.00 0.00 58 1002.5
20260505210720 22 218 6.4 9.7 0.00 0.00 0.00 56 1002.5
20260505210217 22 202 6.4 11.3 0.00 0.00 0.00 55 1002.5
20260505205714 23 139 3.2 6.4 0.00 0.00 0.00 55 1002.1
20260505205213 23 228 6.4 12.9 0.00 0.00 0.00 54 1002.5
20260505204709 22 200 3.2 9.7 0.00 0.00 0.00 55 1002.5
20260505204207 23 140 3.2 14.5 0.00 0.00 0.00 55 1002.5
20260505203704 22 137 1.6 9.7 0.00 0.00 0.00 55 1002.5
20260505203200 23 169 3.2 9.7 0.00 0.00 0.00 54 1002.1
20260505202656 23 151 8.0 11.3 0.00 0.00 0.00 55 1002.1
20260505202152 23 178 4.8 6.4 0.00 0.00 0.00 55 1002.5
20260505201649 23 235 8.0 11.3 0.00 0.00 0.00 53 1002.5
20260505201147 23 194 4.8 11.3 0.00 0.00 0.00 55 1002.5
20260505200645 23 219 6.4 11.3 0.00 0.00 0.00 54 1002.5
20260505200141 23 126 4.8 17.7 0.00 0.00 0.00 54 1002.5
20260505195637 23 111 6.4 12.9 0.00 0.00 0.00 54 1002.5
20260505195135 23 170 1.6 9.7 0.00 0.00 0.00 54 1002.9
20260505194632 23 252 4.8 6.4 0.00 0.00 0.00 53 1002.9
20260505194128 23 131 4.8 11.3 0.00 0.00 0.00 53 1002.9
20260505193625 23 191 4.8 9.7 0.00 0.00 0.00 53 1002.9
20260505193122 23 262 4.8 16.1 0.00 0.00 0.00 53 1002.9
20260505192620 23 214 6.4 11.3 0.00 0.00 0.00 53 1002.5
20260505192117 24 198 4.8 16.1 0.00 0.00 0.00 51 1002.9
20260505191616 24 172 3.2 9.7 0.00 0.00 0.00 54 1002.9
20260505191113 24 236 6.4 11.3 0.00 0.00 0.00 51 1003.2
20260505190609 25 164 11.3 20.9 0.00 0.00 0.00 52 1003.2
20260505190104 25 139 1.6 6.4 0.00 0.00 0.00 52 1003.2
20260505185601 24 136 4.8 11.3 0.00 0.00 0.00 52 1003.2
20260505185057 25 192 4.8 11.3 0.00 0.00 0.00 50 1003.5
20260505184554 25 292 3.2 4.8 0.00 0.00 0.00 49 1003.5
20260505184051 25 160 9.7 14.5 0.00 0.00 0.00 49 1003.2
20260505183547 25 236 8.0 11.3 0.00 0.00 0.00 48 1003.2
20260505183045 25 172 4.8 9.7 0.00 0.00 0.00 47 1003.2
20260505182541 25 147 6.4 14.5 0.00 0.00 0.00 48 1003.5
20260505182038 25 200 11.3 14.5 0.00 0.00 0.00 47 1003.5
20260505181535 25 203 6.4 9.7 0.00 0.00 0.00 49 1003.5
20260505181032 25 181 4.8 14.5 0.00 0.00 0.00 48 1003.5
20260505180528 25 191 6.4 11.3 0.00 0.00 0.00 48 1003.5
20260505180027 25 142 4.8 11.3 0.00 0.00 0.00 49 1003.5
20260505175526 25 179 6.4 12.9 0.00 0.00 0.00 48 1003.5
20260505175023 25 228 3.2 12.9 0.00 0.00 0.00 48 1003.5
20260505174520 25 123 4.8 11.3 0.00 0.00 0.00 48 1003.5
20260505174016 25 183 3.2 14.5 0.00 0.00 0.00 50 1003.5
20260505173513 25 152 6.4 9.7 0.00 0.00 0.00 47 1003.5
20260505173010 26 236 3.2 6.4 0.00 0.00 0.00 47 1003.5
20260505172508 25 131 3.2 12.9 0.00 0.00 0.00 48 1003.9
20260505172003 25 197 3.2 9.7 0.00 0.00 0.00 50 1003.5
20260505171459 25 212 4.8 11.3 0.00 0.00 0.00 49 1003.5
20260505170956 26 214 3.2 6.4 0.00 0.00 0.00 47 1003.9
20260505170452 25 179 4.8 11.3 0.00 0.00 0.00 48 1003.5
20260505165948 25 163 4.8 6.4 0.00 0.00 0.00 49 1003.9
20260505165444 25 231 6.4 9.7 0.00 0.00 0.00 47 1003.9
20260505164939 25 224 4.8 9.7 0.00 0.00 0.00 47 1003.9
20260505164436 23 160 3.2 6.4 0.00 0.00 0.00 50 1003.9
20260505163934 25 274 9.7 12.9 0.00 0.00 0.00 49 1003.9
20260505163433 24 167 3.2 12.9 0.00 0.00 0.00 50 1004.2
20260505162932 25 336 3.2 11.3 0.00 0.00 0.00 51 1004.2
20260505162427 25 111 4.8 11.3 0.00 0.00 0.00 50 1004.5
20260505161924 24 234 3.2 3.2 0.00 0.00 0.00 50 1004.5
20260505161421 25 224 3.2 4.8 0.00 0.00 0.00 51 1004.2
20260505160918 23 134 3.2 11.3 0.00 0.00 0.00 53 1004.5
20260505160416 24 150 6.4 6.4 0.00 0.00 0.00 51 1004.2
20260505153349 23 148 1.6 4.8 0.00 0.00 0.00 53 1004.5
20260505152846 23 153 6.4 6.4 0.00 0.00 0.00 53 1004.5
20260505152343 23 140 4.8 9.7 0.00 0.00 0.00 54 1004.9
20260505151838 22 207 1.6 9.7 0.00 0.00 0.00 53 1004.9
20260505151335 22 221 3.2 6.4 0.00 0.00 0.00 55 1004.9
20260505150831 22 161 6.4 9.7 0.00 0.00 0.00 55 1004.9
20260505150328 23 163 3.2 4.8 0.00 0.00 0.00 56 1005.2